TimeCST,TemperatureF,Dew PointF,Humidity,Sea Level PressureIn,VisibilityMPH,Wind Direction,Wind SpeedMPH,Gust SpeedMPH,PrecipitationIn,Events,Conditions,WindDirDegrees,DateUTC
12:25 AM,62.6,57.2,82,30.07,10.0,SW,8.1,-,N/A,,Mostly Cloudy,230,2014-02-19 06:25:00
12:32 AM,62.6,57.2,82,30.07,10.0,SW,8.1,-,N/A,,Overcast,220,2014-02-19 06:32:00
12:53 AM,62.1,57.9,86,30.04,10.0,SSW,9.2,-,N/A,,Overcast,200,2014-02-19 06:53:00
1:53 AM,61.0,57.9,90,30.04,10.0,SSW,13.8,-,N/A,,Mostly Cloudy,210,2014-02-19 07:53:00
2:53 AM,62.1,57.9,86,30.04,10.0,SW,16.1,21.9,N/A,,Overcast,220,2014-02-19 08:53:00
3:43 AM,62.6,57.2,82,30.04,10.0,SSW,11.5,-,N/A,,Overcast,210,2014-02-19 09:43:00
3:53 AM,62.1,57.9,86,30.03,10.0,SW,12.7,19.6,N/A,,Overcast,220,2014-02-19 09:53:00
4:34 AM,62.6,57.2,82,30.05,10.0,SW,8.1,19.6,N/A,,Overcast,230,2014-02-19 10:34:00
4:53 AM,62.1,57.9,86,30.04,10.0,SW,8.1,-,N/A,,Overcast,230,2014-02-19 10:53:00
5:30 AM,62.6,57.2,82,30.06,10.0,SW,11.5,-,N/A,,Overcast,220,2014-02-19 11:30:00
5:53 AM,62.1,57.9,86,30.06,10.0,WSW,10.4,-,N/A,,Overcast,240,2014-02-19 11:53:00
6:53 AM,62.1,57.9,86,30.07,10.0,SW,11.5,-,N/A,,Overcast,220,2014-02-19 12:53:00
7:53 AM,63.0,57.9,84,30.08,10.0,SW,13.8,18.4,N/A,,Overcast,230,2014-02-19 13:53:00
8:53 AM,63.0,57.9,84,30.09,10.0,SW,10.4,-,N/A,,Overcast,230,2014-02-19 14:53:00
9:53 AM,64.0,57.9,80,30.09,10.0,SW,10.4,-,N/A,,Overcast,220,2014-02-19 15:53:00
10:53 AM,64.0,59.0,84,30.09,7.0,WSW,10.4,-,0.00,Rain,Light Rain,240,2014-02-19 16:53:00
11:21 AM,62.6,59.0,88,30.10,7.0,WSW,9.2,-,0.00,Rain,Light Rain,250,2014-02-19 17:21:00
11:53 AM,64.0,59.0,84,30.07,7.0,SW,9.2,-,0.00,,Overcast,230,2014-02-19 17:53:00
12:08 PM,64.4,59.0,83,30.08,7.0,SW,4.6,-,N/A,,Overcast,220,2014-02-19 18:08:00
12:53 PM,64.9,57.9,78,30.04,10.0,WSW,6.9,-,N/A,,Overcast,250,2014-02-19 18:53:00
1:53 PM,64.9,57.9,78,30.03,10.0,West,5.8,-,N/A,,Overcast,280,2014-02-19 19:53:00
2:43 PM,66.2,59.0,78,30.03,10.0,SW,4.6,-,N/A,,Overcast,230,2014-02-19 20:43:00
2:53 PM,66.0,59.0,78,30.02,10.0,WSW,4.6,-,N/A,,Mostly Cloudy,250,2014-02-19 20:53:00
3:53 PM,66.0,59.0,78,30.01,10.0,Calm,Calm,-,N/A,,Overcast,0,2014-02-19 21:53:00
4:53 PM,66.0,59.0,78,30.01,10.0,Calm,Calm,-,N/A,,Overcast,0,2014-02-19 22:53:00
5:53 PM,62.1,57.9,86,30.03,10.0,North,3.5,-,N/A,,Scattered Clouds,10,2014-02-19 23:53:00
6:53 PM,62.1,57.9,86,30.03,9.0,Calm,Calm,-,N/A,,Scattered Clouds,0,2014-02-20 00:53:00
7:53 PM,62.1,57.9,86,30.02,10.0,ENE,5.8,-,N/A,,Scattered Clouds,60,2014-02-20 01:53:00
8:53 PM,62.1,57.9,86,30.02,10.0,East,5.8,-,N/A,,Partly Cloudy,90,2014-02-20 02:53:00
9:53 PM,63.0,57.0,81,30.01,10.0,Calm,Calm,-,N/A,,Overcast,0,2014-02-20 03:53:00
10:53 PM,62.1,55.9,80,29.99,10.0,ESE,4.6,-,N/A,,Partly Cloudy,120,2014-02-20 04:53:00
11:53 PM,64.0,57.0,78,29.99,10.0,South,10.4,-,N/A,,Mostly Cloudy,170,2014-02-20 05:53:00